Regional Weather Roundup
Issued by NWS

Home | Current Version | Previous Version | Graphics & Text | Print | Product List | Glossary On
Versions: 1 2 3 4 5 6 7 8 9 10 11 12 13 14 15 16 17 18 19 20 21 22 23 24 25 26 27
000
ASUS45 KTFX 022110
RWRMT
MONTANA REGIONAL WEATHER ROUNDUP
NATIONAL WEATHER SERVICE GREAT FALLS MT
300 PM MDT MON MAY 02 2016

NOTE: "FAIR" INDICATES FEW OR NO CLOUDS BELOW 12000 FEET WITH NO
SIGNIFICANT WEATHER AND/OR OBSTRUCTIONS TO VISIBILITY.

MTZ001>007-043-022200-
WEST OF THE DIVIDE

CITY           SKY/WX    TMP DP  RH WIND       PRES   REMARKS
KALISPELL      SUNNY     72  33  24 CALM      30.12F
MISSOULA       SUNNY     72  34  24 CALM      30.14F
BUTTE          SUNNY     64  12  13 W7        30.20F
MULLAN PASS    SUNNY     60  27  28 CALM      30.23F
$$

MTZ008-052>055-022200-
SOUTHWEST MONTANA

CITY           SKY/WX    TMP DP  RH WIND       PRES   REMARKS
BOZEMAN        SUNNY     66  30  26 VRB5      30.18F
DILLON         SUNNY     64  22  20 VRB7      30.18F
ENNIS          SUNNY     64  25  22 N9G16     30.23F
$$

MTZ009-010-012-014-046-048-049-054-022200-
EAST SLOPES AND CENTRAL MONTANA

CITY           SKY/WX    TMP DP  RH WIND       PRES   REMARKS
CUT BANK       SUNNY     69  28  21 S6        30.14S
MALMSTROM AFB  SUNNY     67  33  28 SE3       30.14F
HELENA         SUNNY     71  20  14 VRB5      30.16F
$$

MTZ011-013-016-021-045-047-050-051-022200-
NORTH CENTRAL MONTANA

CITY           SKY/WX    TMP DP  RH WIND       PRES   REMARKS
HAVRE          SUNNY     72  39  30 W3        30.10F
LEWISTOWN      SUNNY     68  33  27 N7        30.16F
N BAR RANCH      N/A     66  32  28 N8        30.17F
$$

MTZ017>020-022>027-061-062-022200-
NORTHEAST MONTANA

CITY           SKY/WX    TMP DP  RH WIND       PRES   REMARKS
GLASGOW        SUNNY     75  37  25 NW16      30.05F
JORDAN           N/A     71  38  29 NW15G22   30.08F
SIDNEY         SUNNY     73  36  25 NE15G23   30.00S
WOLF POINT     MOSUNNY   78  37  22 NW15      30.00F
$$

MTZ028>42-056>058-022200-
SOUTHCENTRAL AND SOUTHEAST MONTANA

CITY           SKY/WX    TMP DP  RH WIND       PRES   REMARKS
BAKER          PTSUNNY   69  33  26 N23       30.03F
BILLINGS       MOSUNNY   68  29  23 W6        30.13F
LIVINGSTON     SUNNY     68  26  20 SW5       30.15F
MILES CITY     MOSUNNY   72  36  26 NW14      30.06F
$$

REGIONAL REPORTS...DAKOTAS

CITY           SKY/WX    TMP DP  RH WIND       PRES   REMARKS
WILLISTON      SUNNY     75  30  19 N15G28    30.00S
MINOT          SUNNY     73  33  23 NE8       29.98F
DICKINSON      SUNNY     68  30  24 N21G30    29.97R
BEACH            N/A     70  32  24 N22G30    30.03F
CROSBY           N/A     72  23  16 N8        30.02F
WATFORD CITY     N/A     70  32  24 NE10G22   30.00S
BISMARCK       MOSUNNY   64  42  44 E5        29.98F
GRAND FORKS    MOSUNNY   71  29  21 E7        29.96F
FARGO          SUNNY     70  28  21 VRB3      29.96F
BUFFALO SD       N/A     67  34  29 NW25G32   29.95F
RAPID CITY     PTSUNNY   66  34  30 NW22G28   30.02F
$$

REGIONAL REPORTS...WYOMING/IDAHO/WASHINGTON

CITY           SKY/WX    TMP DP  RH WIND       PRES   REMARKS
GILLETTE       CLOUDY    61  33  35 N16G25    30.13R
SHERIDAN       CLOUDY    64  36  35 N12G20    30.13F
BUFFALO WY       N/A    N/A N/A N/A MISG      30.15F
CODY           SUNNY     63  28  27 NE10G16   30.17F
YELLOWSTONE LA   N/A     51  15  23 VRB3      30.28F
IDAHO FALLS    SUNNY     64  22  20 VRB3      30.21F
SALMON           N/A    N/A N/A N/A MISG        N/A
BOISE          SUNNY     74  27  17 S12G17    30.13F
SPOKANE        MOSUNNY   76  39  26 CALM      30.11S
$$

REGIONAL REPORTS...ALBERTA

CITY           SKY/WX    TMP DP  RH WIND       PRES   REMARKS
EDMONTON       SUNNY     81  39  22 S8G20     30.01F
CALGARY        PTSUNNY   77  32  19 SE10G22   30.07F
LETHBRIDGE     MOSUNNY   75  30  19 VRB7G28   30.08F
MEDICINE HAT   MOSUNNY   75  37  25 VRB7      30.07F
$$

REGIONAL REPORTS...SASKATCHEWAN

CITY           SKY/WX    TMP DP  RH WIND       PRES   REMARKS
SWIFT CURRENT  SUNNY     73  34  23 N12G18    30.05S
REGINA         PTSUNNY   73  30  20 N10G21    30.01F
SASKATOON      MOSUNNY   79  34  19 NW13      30.02F
$$




USA.gov is the U.S. government's official web portal to all federal, state and local government web resources and services.